Medicine Lodge, KS

8:26 AM CST on December 14, 2019 (GMT -0600)
Medicine Lodge

Weather History for KP28 - October, 2019

Change the Weather History Date:

Thursday, October 17, 2019

  Actual Average Record
Temperature  
Mean Temperature 61 °F 58 °F  
Max Temperature 80 °F 71 °F 94 °F (2005)
Min Temperature 42 °F 46 °F 27 °F (1976)
Degree Days  
Heating Degree Days 4 8  
Month to date heating degree days 129 94  
Since 1 July heating degree days 129 128  
Cooling Degree Days 0 1  
Month to date cooling degree days 23 33  
Year to date cooling degree days 1837 1764  
Growing Degree Days 11 (Base 50)    
Moisture  
Dew Point 36 °F    
Average Humidity 50    
Maximum Humidity 82    
Minimum Humidity 18    
Precipitation  
Precipitation 0.00 in 0.11 in 0.96 in (2007)
Month to date precipitation 1.76 1.65  
Year to date precipitation 30.34 24.10  
Snow  
Snow 0.00 in 0.00 in - ()
Month to date snowfall 0.0 0.0  
Since 1 July snowfall 0.0 0.0  
Since 1 September snowfall 0.0 0.0  
Snow Depth 0.00 in    
Sea Level Pressure  
Sea Level Pressure 29.87 in    
Wind  
Wind Speed 10 mph (SSE)    
Max Wind Speed 22 mph    
Max Gust Speed 32 mph    
T = Trace of Precipitation, MM = Missing Value Source: NWS Daily Summary

Daily Weather History Graph

Daily Weather History Graph

Search for Another Location

Airport or City:

Astronomy

Oct. 17, 2019 Rise Set
Actual Time 7:43 AM CDT 6:54 PM CDT
Civil Twilight 7:17 AM CDT 7:21 PM CDT
Nautical Twilight 6:47 AM CDT 7:51 PM CDT
Astronomical Twilight 6:17 AM CDT 8:21 PM CDT
Moon 9:31 PM CDT (10/17) 11:13 AM CDT (10/17)
Length of Visible Light 12h 03m
Length of Day
11h 10m
Waning Gibbous, 86% of the Moon is Illuminated
Oct 17
Waning Gibbous
Oct 21
Last Quarter
Oct 27
New
Nov 4
First Quarter
Nov 12
Full

Hourly Weather History & Observations

Time (CDT) Temp. Windchill Dew Point Humidity Pressure Visibility Wind Dir Wind Speed Gust Speed Precip Events Conditions
12:56 AM 48.9 °F - 37.9 °F 66% 30.02 in - SSE 6.9 mph - N/A   Unknown
1:56 AM 48.0 °F - 37.0 °F 66% 30.01 in - SSE 6.9 mph - N/A   Unknown
2:56 AM 46.9 °F - 37.0 °F 68% 30.01 in - SE 6.9 mph - N/A   Unknown
3:56 AM 46.9 °F - 36.0 °F 66% 30.00 in - SSE 5.8 mph - N/A   Unknown
4:56 AM 46.9 °F - 36.0 °F 66% 29.98 in - SSE 8.1 mph - N/A   Unknown
5:56 AM 46.9 °F - 36.0 °F 66% 29.97 in - SSE 5.8 mph - N/A   Unknown
7:56 AM 42.1 °F 39.2 °F 37.0 °F 82% 29.97 in - SE 4.6 mph - N/A   Unknown
9:56 AM 52.0 °F - 37.0 °F 57% 29.96 in - SSE 8.1 mph - N/A   Unknown
10:56 AM 57.9 °F - 37.9 °F 47% 29.94 in - South 11.5 mph - N/A   Unknown
11:56 AM 64.9 °F - 37.9 °F 37% 29.90 in - South 10.4 mph - N/A   Unknown
12:56 PM 72.0 °F - 36.0 °F 27% 29.86 in - South 15.0 mph 23.0 mph N/A   Unknown
1:56 PM 75.9 °F - 36.0 °F 23% 29.82 in - South 15.0 mph 27.6 mph N/A   Unknown
2:56 PM 78.1 °F - 35.1 °F 21% 29.78 in - South 20.7 mph 28.8 mph N/A   Unknown
3:56 PM 79.0 °F - 36.0 °F 21% 29.75 in - South 20.7 mph 29.9 mph N/A   Unknown
4:56 PM 80.1 °F - 34.0 °F 19% 29.75 in - South 12.7 mph 26.5 mph N/A   Unknown
5:56 PM 75.9 °F - 35.1 °F 23% 29.75 in - South 11.5 mph 24.2 mph N/A   Unknown
6:56 PM 70.0 °F - 37.0 °F 30% 29.76 in - SSE 8.1 mph - N/A   Unknown
7:56 PM 66.9 °F - 36.0 °F 32% 29.77 in - SE 9.2 mph - N/A   Unknown
8:56 PM 64.9 °F - 36.0 °F 34% 29.77 in - SSE 11.5 mph 24.2 mph N/A   Unknown
9:56 PM 64.0 °F - 35.1 °F 34% 29.76 in - SSE 13.8 mph 23.0 mph N/A   Unknown
10:56 PM 61.0 °F - 36.0 °F 39% 29.76 in - SSE 8.1 mph 18.4 mph N/A   Unknown
11:56 PM 59.0 °F - 37.9 °F 46% 29.75 in - SSE 9.2 mph - N/A   Unknown